Estación de Casa Rosada
Ultimos registro cada 15 minutos 74
| N° | Estación | Fecha / Hora | Temperatura | Humedad | Lluvia | Velocidad | Dirección | Radiación | Presion |
| 74 | Casa Rosada | 06-05-2026 18:15 | 22,2 | 25 | 0 | 1,8 | 7 | 0 | 1012,5 |
| 73 | Casa Rosada | 06-05-2026 18:00 | 22,6 | 25 | 0 | 1,3 | 27 | 5 | 1012,1 |
| 72 | Casa Rosada | 06-05-2026 17:45 | 22,9 | 25 | 0 | 1,3 | 1 | 11 | 1011,6 |
| 71 | Casa Rosada | 06-05-2026 17:30 | 23,4 | 24 | 0 | 1,3 | 1 | 16 | 1011,4 |
| 70 | Casa Rosada | 06-05-2026 17:15 | 24,2 | 24 | 0 | 1,8 | 56 | 21 | 1011,4 |
| 69 | Casa Rosada | 06-05-2026 17:00 | 25,2 | 21 | 0 | 2,7 | 347 | 139 | 1011,3 |
| 68 | Casa Rosada | 06-05-2026 16:45 | 25,9 | 20 | 0 | 1,3 | 348 | 172 | 1011,4 |
| 67 | Casa Rosada | 06-05-2026 16:30 | 26,3 | 21 | 0 | 3,1 | 10 | 251 | 1011,3 |
| 66 | Casa Rosada | 06-05-2026 16:15 | 26,7 | 22 | 0 | 1,8 | 343 | 297 | 1011,4 |
| 65 | Casa Rosada | 06-05-2026 16:00 | 27,1 | 22 | 0 | 2,7 | 343 | 341 | 1011,4 |
| 64 | Casa Rosada | 06-05-2026 15:45 | 27,5 | 22 | 0 | 2,7 | 10 | 381 | 1011,3 |
| 63 | Casa Rosada | 06-05-2026 15:30 | 28 | 20 | 0 | 3,1 | 327 | 422 | 1011,4 |
| 62 | Casa Rosada | 06-05-2026 15:15 | 28,3 | 18 | 0 | 0,9 | 302 | 461 | 1011,5 |
| 61 | Casa Rosada | 06-05-2026 15:00 | 28,3 | 18 | 0 | 1,3 | 275 | 494 | 1011,8 |
| 60 | Casa Rosada | 06-05-2026 14:45 | 28,6 | 17 | 0 | 2,7 | 334 | 527 | 1012 |
| 59 | Casa Rosada | 06-05-2026 14:30 | 28,7 | 18 | 0 | 1,3 | 347 | 554 | 1012,4 |
| 58 | Casa Rosada | 06-05-2026 14:15 | 28,7 | 16 | 0 | 3,1 | 307 | 578 | 1012,7 |
| 57 | Casa Rosada | 06-05-2026 14:00 | 28,6 | 19 | 0 | 1,3 | 316 | 598 | 1013 |
| 56 | Casa Rosada | 06-05-2026 13:45 | 28,6 | 18 | 0 | 3,6 | 316 | 615 | 1013,1 |
| 55 | Casa Rosada | 06-05-2026 13:30 | 28 | 18 | 0 | 1,3 | 319 | 631 | 1013,2 |
| 54 | Casa Rosada | 06-05-2026 13:15 | 27,9 | 18 | 0 | 2,2 | 8 | 642 | 1013,3 |
| 53 | Casa Rosada | 06-05-2026 13:00 | 27,5 | 19 | 0 | 2,7 | 341 | 654 | 1013,6 |
| 52 | Casa Rosada | 06-05-2026 12:45 | 27,5 | 18 | 0 | 2,7 | 309 | 657 | 1013,4 |
| 51 | Casa Rosada | 06-05-2026 12:30 | 27,6 | 20 | 0 | 2,2 | 360 | 649 | 1013,5 |
| 50 | Casa Rosada | 06-05-2026 12:15 | 27,2 | 20 | 0 | 2,7 | 322 | 643 | 1013,5 |
| 49 | Casa Rosada | 06-05-2026 12:00 | 26,7 | 21 | 0 | 3,1 | 347 | 635 | 1013,5 |
| 48 | Casa Rosada | 06-05-2026 11:45 | 25,9 | 21 | 0 | 2,7 | 7 | 624 | 1013,5 |
| 47 | Casa Rosada | 06-05-2026 11:30 | 25,4 | 22 | 0 | 1,8 | 19 | 613 | 1014 |
| 46 | Casa Rosada | 06-05-2026 11:15 | 24,7 | 23 | 0 | 0,9 | 315 | 592 | 1014,3 |
| 45 | Casa Rosada | 06-05-2026 11:00 | 23,9 | 27 | 0 | 1,8 | 1 | 570 | 1014,7 |
| 44 | Casa Rosada | 06-05-2026 10:45 | 23,6 | 27 | 0 | 0,9 | 77 | 540 | 1015,4 |
| 43 | Casa Rosada | 06-05-2026 10:30 | 23,1 | 29 | 0 | 0,9 | 181 | 515 | 1016 |
| 42 | Casa Rosada | 06-05-2026 10:15 | 21,8 | 31 | 0 | 0,4 | 13 | 478 | 1016,7 |
| 41 | Casa Rosada | 06-05-2026 10:00 | 20,6 | 33 | 0 | 1,3 | 167 | 446 | 1017,1 |
| 40 | Casa Rosada | 06-05-2026 09:45 | 18,3 | 38 | 0 | 1,3 | 156 | 408 | 1017,7 |
| 39 | Casa Rosada | 06-05-2026 09:30 | 16,7 | 41 | 0 | 0,9 | 71 | 362 | 1018,2 |
| 38 | Casa Rosada | 06-05-2026 09:15 | 14,2 | 48 | 0 | 0,4 | 96 | 318 | 1018,3 |
| 37 | Casa Rosada | 06-05-2026 09:00 | 11,4 | 55 | 0 | 0,9 | 40 | 276 | 1018,2 |
| 36 | Casa Rosada | 06-05-2026 08:45 | 9,7 | 60 | 0 | 0,9 | 167 | 30 | 1017,9 |
| 35 | Casa Rosada | 06-05-2026 08:30 | 9,3 | 61 | 0 | 0,9 | 150 | 21 | 1017,7 |
| 34 | Casa Rosada | 06-05-2026 08:15 | 9,2 | 62 | 0 | 1,3 | 183 | 46 | 1017,7 |
| 33 | Casa Rosada | 06-05-2026 08:00 | 8,9 | 63 | 0 | 0 | 159 | 21 | 1017,7 |
| 32 | Casa Rosada | 06-05-2026 07:45 | 8,3 | 64 | 0 | 0,9 | 143 | 14 | 1017,5 |
| 31 | Casa Rosada | 06-05-2026 07:30 | 8,3 | 64 | 0 | 0,4 | 177 | 12 | 1017,3 |
| 30 | Casa Rosada | 06-05-2026 07:15 | 8,9 | 63 | 0 | 0,4 | 172 | 5 | 1017 |
| 29 | Casa Rosada | 06-05-2026 07:00 | 8,8 | 63 | 0 | 0,4 | 177 | 0 | 1016,8 |
| 28 | Casa Rosada | 06-05-2026 06:45 | 8,9 | 63 | 0 | 0,4 | 157 | 0 | 1016,5 |
| 27 | Casa Rosada | 06-05-2026 06:30 | 9,6 | 60 | 0 | 1,3 | 172 | 0 | 1016,2 |
| 26 | Casa Rosada | 06-05-2026 06:15 | 10,9 | 57 | 0 | 0 | 202 | 0 | 1016 |
| 25 | Casa Rosada | 06-05-2026 06:00 | 9,6 | 61 | 0 | 0,4 | 167 | 0 | 1015,7 |
| 24 | Casa Rosada | 06-05-2026 05:45 | 9,8 | 61 | 0 | 0,4 | 167 | 0 | 1015,7 |
| 23 | Casa Rosada | 06-05-2026 05:30 | 10,6 | 58 | 0 | 0,9 | 189 | 0 | 1015,4 |
| 22 | Casa Rosada | 06-05-2026 05:15 | 9,7 | 61 | 0 | 0,4 | 147 | 0 | 1015,2 |
| 21 | Casa Rosada | 06-05-2026 05:00 | 10,1 | 61 | 0 | 0,9 | 177 | 0 | 1015,3 |
| 20 | Casa Rosada | 06-05-2026 04:45 | 10,3 | 60 | 0 | 0,9 | 162 | 0 | 1015,4 |
| 19 | Casa Rosada | 06-05-2026 04:30 | 10,5 | 60 | 0 | 0,4 | 159 | 0 | 1015,3 |
| 18 | Casa Rosada | 06-05-2026 04:15 | 10,3 | 61 | 0 | 0,4 | 121 | 0 | 1015,1 |
| 17 | Casa Rosada | 06-05-2026 04:00 | 10,1 | 61 | 0 | 0,9 | 172 | 0 | 1015,3 |
| 16 | Casa Rosada | 06-05-2026 03:45 | 10,3 | 61 | 0 | 0,9 | 177 | 0 | 1015,1 |
| 15 | Casa Rosada | 06-05-2026 03:30 | 10,8 | 59 | 0 | 0,9 | 167 | 0 | 1015,2 |
| 14 | Casa Rosada | 06-05-2026 03:15 | 11,1 | 58 | 0 | 0,9 | 163 | 0 | 1015,3 |
| 13 | Casa Rosada | 06-05-2026 03:00 | 11,5 | 57 | 0 | 0,9 | 149 | 0 | 1015,2 |
| 12 | Casa Rosada | 06-05-2026 02:45 | 12,1 | 55 | 0 | 0,9 | 156 | 0 | 1015,3 |
| 11 | Casa Rosada | 06-05-2026 02:30 | 12,7 | 54 | 0 | 0,9 | 167 | 0 | 1015,2 |
| 10 | Casa Rosada | 06-05-2026 02:15 | 13,6 | 51 | 0 | 0,9 | 177 | 0 | 1015,3 |
| 9 | Casa Rosada | 06-05-2026 02:00 | 12,1 | 57 | 0 | 0,9 | 177 | 0 | 1015,2 |
| 8 | Casa Rosada | 06-05-2026 01:45 | 12,8 | 54 | 0 | 0 | 192 | 0 | 1015,1 |
| 7 | Casa Rosada | 06-05-2026 01:30 | 13,6 | 52 | 0 | 0 | 181 | 0 | 1015 |
| 6 | Casa Rosada | 06-05-2026 01:15 | 14,2 | 50 | 0 | 0,4 | 24 | 0 | 1014,8 |
| 5 | Casa Rosada | 06-05-2026 01:00 | 15,1 | 48 | 0 | 0 | 357 | 0 | 1014,9 |
| 4 | Casa Rosada | 06-05-2026 00:45 | 16,6 | 43 | 0 | 0,9 | 181 | 0 | 1014,8 |
| 3 | Casa Rosada | 06-05-2026 00:30 | 16,3 | 44 | 0 | 0,9 | 172 | 0 | 1014,7 |
| 2 | Casa Rosada | 06-05-2026 00:15 | 16,8 | 43 | 0 | 0,9 | 177 | 0 | 1014,8 |
| 1 | Casa Rosada | 06-05-2026 00:00 | 16,4 | 44 | 0 | 0,9 | 162 | 0 | 1014,5 |